�������l�o���
Date,Time,MP-1(��Sv/h),MP-2(��Sv/h),MP-3(��Sv/h),MP-4(��Sv/h),MP-5(��Sv/h),MP-6(��Sv/h),MP-7(��Sv/h),MP-8(��Sv/h),����,����(m/s),���J
2014/03/14,00:00,2.4,4.1,4.7,4.2,4.3,1.9,2.5,2.7,�k��,9.6,��
2014/03/14,00:10,2.4,4.1,4.7,4.2,4.3,1.9,2.5,2.7,�k��,8.0,��
2014/03/14,00:20,2.4,4.2,4.7,4.2,4.3,1.9,2.5,2.7,�k�k��,7.4,��
2014/03/14,00:30,2.4,4.2,4.7,4.2,4.4,1.9,2.5,2.7,�k�k��,5.7,��
2014/03/14,00:40,2.4,4.2,4.7,4.2,4.4,1.9,2.5,2.7,�k�k��,6.9,��
2014/03/14,00:50,2.4,4.2,4.7,4.2,4.4,2.0,2.5,2.7,�k��,6.2,��
2014/03/14,01:00,2.4,4.2,4.7,4.2,4.4,1.9,2.5,2.7,�k��,7.4,��
2014/03/14,01:10,2.4,4.2,4.7,4.2,4.4,2.0,2.5,2.7,�k��,6.5,��
2014/03/14,01:20,2.4,4.2,4.7,4.2,4.4,2.0,2.5,2.7,�k��,8.0,��
2014/03/14,01:30,2.4,4.2,4.7,4.2,4.4,2.0,2.5,2.7,�k��,6.5,��
2014/03/14,01:40,2.4,4.2,4.7,4.2,4.4,2.0,2.5,2.7,�k�k��,6.1,��
2014/03/14,01:50,2.4,4.2,4.7,4.2,4.4,2.0,2.5,2.7,�k�k��,5.2,��
2014/03/14,02:00,2.4,4.2,4.7,4.2,4.4,2.0,2.5,2.7,�k,6.0,��
2014/03/14,02:10,2.4,4.2,4.7,4.2,4.4,2.0,2.5,2.7,�k�k��,6.7,��
2014/03/14,02:20,2.4,4.2,4.7,4.2,4.4,2.0,2.5,2.7,�k�k��,6.0,��
2014/03/14,02:30,2.4,4.2,4.7,4.2,4.4,2.0,2.5,2.7,�k�k��,6.3,��
2014/03/14,02:40,2.4,4.2,4.7,4.2,4.4,2.0,2.5,2.7,�k�k��,6.1,��
2014/03/14,02:50,2.4,4.2,4.7,4.2,4.4,2.0,2.5,2.7,�k��,6.5,��
2014/03/14,03:00,2.4,4.2,4.7,4.2,4.4,2.0,2.5,2.7,�k�k��,6.7,��
2014/03/14,03:10,2.4,4.2,4.7,4.2,4.4,2.0,2.5,2.7,�k�k��,6.9,��
2014/03/14,03:20,2.4,4.2,4.7,4.2,4.4,2.0,2.5,2.7,�k�k��,6.1,��
2014/03/14,03:30,2.4,4.2,4.7,4.2,4.4,2.0,2.5,2.7,�k,7.2,��
2014/03/14,03:40,2.4,4.2,4.7,4.2,4.4,2.0,2.5,2.7,�k,6.5,��
2014/03/14,03:50,2.4,4.2,4.7,4.2,4.4,2.0,2.5,2.7,�k,6.2,��
2014/03/14,04:00,2.4,4.2,4.7,4.2,4.4,2.0,2.5,2.7,�k,5.4,��
2014/03/14,04:10,2.4,4.2,4.7,4.2,4.4,2.0,2.5,2.7,�k,4.6,�L
2014/03/14,04:20,2.4,4.2,4.7,4.2,4.4,2.0,2.5,2.7,�k,3.4,�L
2014/03/14,04:30,2.4,4.2,4.7,4.2,4.4,2.0,2.5,2.7,�k,4.5,�L
2014/03/14,04:40,2.4,4.2,4.7,4.2,4.4,2.0,2.5,2.7,�k,4.7,�L
2014/03/14,04:50,2.4,4.2,4.7,4.2,4.4,2.0,2.5,2.7,�k,6.3,�L
2014/03/14,05:00,2.4,4.2,4.7,4.2,4.4,2.0,2.5,2.7,�k,6.1,��
2014/03/14,05:10,2.4,4.2,4.7,4.2,4.4,2.0,2.5,2.7,�k,6.3,��
2014/03/14,05:20,2.4,4.2,4.7,4.2,4.4,2.0,2.5,2.7,�k,6.5,��
2014/03/14,05:30,2.4,4.2,4.7,4.2,4.4,2.0,2.5,2.7,�k�k��,6.9,��
2014/03/14,05:40,2.4,4.2,4.7,4.2,4.4,2.0,2.5,2.7,�k�k��,5.6,��
2014/03/14,05:50,2.4,4.2,4.7,4.2,4.4,2.0,2.5,2.7,�k�k��,6.0,��
2014/03/14,06:00,2.4,4.2,4.7,4.2,4.4,2.0,2.5,2.7,�k�k��,5.4,�L
2014/03/14,06:10,2.4,4.2,4.7,4.2,4.4,2.0,2.5,2.7,�k�k��,5.5,��
2014/03/14,06:20,2.4,4.2,4.7,4.2,4.4,2.0,2.5,2.7,�k�k��,6.7,��
2014/03/14,06:30,2.4,4.2,4.7,4.2,4.4,2.0,2.5,2.7,�k�k��,6.2,��
2014/03/14,06:40,2.4,4.2,4.7,4.2,4.4,2.0,2.5,2.7,�k�k��,6.7,��
2014/03/14,06:50,2.4,4.2,4.7,4.3,4.4,2.0,2.5,2.7,�k,6.0,�L
2014/03/14,07:00,2.4,4.2,4.7,4.3,4.4,2.0,2.5,2.7,�k,6.1,�L
2014/03/14,07:10,2.4,4.2,4.7,4.2,4.4,1.9,2.5,2.7,�k,6.4,�L
2014/03/14,07:20,2.4,4.2,4.7,4.3,4.4,1.9,2.5,2.7,�k�k��,6.5,�L
2014/03/14,07:30,2.4,4.2,4.7,4.2,4.4,2.0,2.5,2.7,�k�k��,5.4,�L
2014/03/14,07:40,2.4,4.2,4.7,4.2,4.4,2.0,2.5,2.7,�k�k��,4.8,�L
2014/03/14,07:50,2.4,4.2,4.7,4.3,4.4,2.0,2.5,2.7,�k,4.4,�L
2014/03/14,08:00,2.4,4.2,4.7,4.2,4.4,1.9,2.5,2.7,�k,4.0,�L
2014/03/14,08:10,2.4,4.2,4.8,4.3,4.4,1.9,2.5,2.7,�k,4.0,��
2014/03/14,08:20,2.4,4.2,4.8,4.3,4.4,1.9,2.5,2.7,�k,3.7,��
2014/03/14,08:30,2.4,4.2,4.8,4.2,4.4,1.9,2.5,2.7,�k,3.6,��
2014/03/14,08:40,2.4,4.2,4.8,4.3,4.4,1.9,2.5,2.7,�k,2.9,�L
2014/03/14,08:50,2.4,4.2,4.8,4.3,4.4,1.9,2.5,2.7,�k,3.0,�L
2014/03/14,09:00,2.4,4.2,4.8,4.3,4.4,1.9,2.5,2.7,�k,2.3,�L
2014/03/14,09:10,2.4,4.2,4.8,4.3,4.4,1.9,2.5,2.7,�k�k��,2.1,�L
2014/03/14,09:20,2.4,-,4.8,4.3,4.4,1.9,2.5,2.7,�k�k��,1.5,��
2014/03/14,09:30,2.4,-,4.8,4.3,4.4,1.9,2.5,2.7,�k�k��,1.7,��
2014/03/14,09:40,2.4,-,4.8,4.3,4.4,2.0,2.5,2.7,�k�k��,1.7,�L
2014/03/14,09:50,2.4,-,4.8,4.3,4.4,2.0,2.5,2.7,�k,1.7,�L
2014/03/14,10:00,2.4,-,4.8,4.3,4.5,2.0,2.5,2.7,�k�k��,1.5,��
2014/03/14,10:10,2.4,-,4.8,4.3,4.4,2.0,2.5,2.7,�k�k��,1.9,��
2014/03/14,10:20,2.4,-,4.8,4.3,4.5,2.0,2.5,2.7,�k�k��,3.0,��
2014/03/14,10:30,2.4,-,4.8,4.3,4.5,2.0,2.5,2.7,�k�k��,1.8,��
2014/03/14,10:40,2.4,-,4.8,4.3,4.5,2.0,2.5,2.7,�k�k��,1.9,��
2014/03/14,10:50,2.4,-,4.8,4.3,4.5,2.0,2.5,2.7,�k�k��,3.2,��
2014/03/14,11:00,2.4,-,4.8,4.3,4.5,2.0,2.5,2.7,�k,3.2,��
2014/03/14,11:10,2.4,-,4.8,4.3,4.5,2.0,2.5,2.7,�k�k��,3.4,��
2014/03/14,11:20,2.4,-,4.8,4.3,4.5,2.0,2.5,2.7,�k�k��,4.0,��
2014/03/14,11:30,2.4,-,4.8,4.3,4.5,2.0,2.5,2.7,�k��,3.3,��
2014/03/14,11:40,2.4,-,4.8,4.3,4.5,2.0,2.5,2.7,�k�k��,2.9,��
2014/03/14,11:50,2.4,-,4.8,4.3,4.5,2.0,2.5,2.7,�k�k��,1.8,��
2014/03/14,12:00,2.4,-,4.8,4.3,4.5,2.0,2.5,2.7,�k�k��,3.7,��
2014/03/14,12:10,2.4,-,4.8,4.3,4.5,2.0,2.5,2.7,�k��,5.5,��
2014/03/14,12:20,2.4,-,4.8,4.3,4.5,2.0,2.5,2.7,�k��,9.9,��
2014/03/14,12:30,2.4,-,4.8,4.3,4.5,2.0,2.5,2.7,�k��,8.8,��
2014/03/14,12:40,2.4,-,4.8,4.3,4.5,2.0,2.5,2.7,�k��,9.9,��
2014/03/14,12:50,2.4,-,4.8,4.3,4.5,2.0,2.5,2.7,�k��,8.9,��
2014/03/14,13:00,2.4,-,4.8,4.3,4.5,2.0,2.5,2.7,���k��,9.1,��
2014/03/14,13:10,2.4,-,4.8,4.3,4.5,2.0,2.5,2.7,���k��,7.1,��
2014/03/14,13:20,2.4,-,4.8,4.3,4.5,2.0,2.5,2.7,�k��,8.5,��
2014/03/14,13:30,2.4,-,4.8,4.3,4.5,2.0,2.5,2.7,�k��,6.1,��
2014/03/14,13:40,2.4,-,4.8,4.3,4.5,2.0,2.5,2.7,�k�k��,7.1,��
2014/03/14,13:50,2.4,-,4.8,4.3,4.5,2.0,2.5,2.7,�k�k��,6.3,��
2014/03/14,14:00,2.4,-,4.8,4.3,4.5,2.0,2.5,2.7,�k�k��,7.4,��
2014/03/14,14:10,2.4,-,4.8,4.3,4.5,2.0,2.5,2.7,�k��,6.5,��
2014/03/14,14:20,2.4,-,4.8,4.3,4.5,2.0,2.5,2.7,�k,8.2,��
2014/03/14,14:30,2.4,-,4.8,4.3,4.5,2.0,2.5,2.7,�k�k��,5.3,��
2014/03/14,14:40,2.4,-,4.8,4.3,4.5,2.0,2.5,2.7,�k,7.1,��
2014/03/14,14:50,2.4,-,4.8,4.3,4.5,2.0,2.5,2.7,�k�k��,4.3,��
2014/03/14,15:00,2.4,-,4.8,4.3,4.5,2.0,2.5,2.7,�k��,7.4,��
2014/03/14,15:10,2.4,-,4.8,4.3,4.5,2.0,2.5,2.7,���k��,9.0,��
2014/03/14,15:20,2.4,-,4.8,4.3,4.5,2.0,2.5,2.7,���k��,9.3,��
2014/03/14,15:30,2.4,-,4.8,4.3,4.5,2.0,2.5,2.7,���k��,9.9,��
2014/03/14,15:40,2.4,-,4.8,4.3,4.5,2.0,2.5,2.7,���k��,10.2,��
2014/03/14,15:50,2.4,-,4.8,4.3,4.5,2.0,2.5,2.7,���k��,9.7,��
2014/03/14,16:00,2.4,-,4.8,4.3,4.5,2.0,2.5,2.7,���k��,9.1,��
2014/03/14,16:10,2.4,-,4.8,4.3,4.5,2.0,2.5,2.7,���k��,8.6,��
2014/03/14,16:20,2.4,-,4.8,4.3,4.5,2.0,2.5,2.7,�k��,8.9,��
2014/03/14,16:30,2.4,-,4.8,4.3,4.5,2.0,2.5,2.7,�k��,8.2,��
2014/03/14,16:40,2.4,-,4.8,4.3,4.5,2.0,2.5,2.7,�k��,7.7,��
2014/03/14,16:50,2.4,-,4.8,4.3,4.5,2.0,2.5,2.7,�k��,7.2,��
2014/03/14,17:00,2.4,-,4.8,4.3,4.5,2.0,2.5,2.7,�k��,6.9,��
2014/03/14,17:10,2.4,-,4.8,4.3,4.5,2.0,2.5,2.7,�k��,5.7,��
2014/03/14,17:20,2.4,4.3,4.8,4.3,4.5,2.0,2.5,2.7,�k��,5.4,��
2014/03/14,17:30,2.4,4.3,4.8,4.3,4.5,2.0,2.5,2.7,�k��,7.4,��
2014/03/14,17:40,2.4,4.3,4.8,4.3,4.5,2.0,2.5,2.7,�k��,8.6,��
2014/03/14,17:50,2.4,4.3,4.8,4.3,4.5,2.0,2.5,2.7,�k��,7.7,��
2014/03/14,18:00,2.4,4.3,4.8,4.3,4.5,2.0,2.5,2.7,�k��,8.2,��
2014/03/14,18:10,2.4,4.3,4.8,4.3,4.5,2.0,2.5,2.7,�k��,6.6,��
2014/03/14,18:20,2.4,4.3,4.8,4.3,4.5,2.0,2.5,2.7,�k��,6.5,��
2014/03/14,18:30,2.4,4.3,4.8,4.3,4.5,2.0,2.5,2.7,�k��,6.0,��
2014/03/14,18:40,2.4,4.3,4.8,4.3,4.5,2.0,2.5,2.7,�k��,4.3,��
2014/03/14,18:50,2.4,4.3,4.8,4.3,4.5,2.0,2.5,2.7,�k��,5.5,��
2014/03/14,19:00,2.4,4.3,4.8,4.3,4.5,2.0,2.5,2.7,���k��,5.5,��
2014/03/14,19:10,2.4,4.3,4.8,4.3,4.5,2.0,2.5,2.7,�k��,5.2,��
2014/03/14,19:20,2.4,4.3,4.8,4.3,4.5,2.0,2.5,2.7,�k��,5.6,��
2014/03/14,19:30,2.4,4.3,4.8,4.3,4.5,2.0,2.5,2.7,�k��,6.9,��
2014/03/14,19:40,2.4,4.3,4.8,4.3,4.5,2.0,2.5,2.7,���k��,6.5,��
2014/03/14,19:50,2.4,4.3,4.8,4.3,4.5,2.0,2.5,2.7,���k��,7.4,��
2014/03/14,20:00,2.4,4.3,4.8,4.3,4.5,2.0,2.5,2.7,���k��,6.6,��
2014/03/14,20:10,2.4,4.3,4.8,4.3,4.5,2.0,2.5,2.7,�k��,6.9,��
2014/03/14,20:20,2.4,4.3,4.8,4.3,4.5,2.0,2.5,2.7,�k��,6.1,��
2014/03/14,20:30,2.4,4.3,4.8,4.3,4.5,2.0,2.5,2.7,�k��,6.1,��
2014/03/14,20:40,2.4,4.3,4.8,4.3,4.5,2.0,2.5,2.7,���k��,5.2,��
2014/03/14,20:50,2.4,4.3,4.8,4.3,4.5,2.0,2.5,2.8,�k��,6.8,��
2014/03/14,21:00,2.4,4.3,4.8,4.3,4.5,2.0,2.5,2.7,���k��,6.0,��
2014/03/14,21:10,2.4,4.3,4.8,4.3,4.5,2.0,2.5,2.7,���k��,5.7,��
2014/03/14,21:20,2.4,4.3,4.8,4.3,4.5,2.0,2.5,2.7,���k��,5.5,��
2014/03/14,21:30,2.4,4.3,4.8,4.3,4.5,2.0,2.5,2.7,���k��,6.1,��
2014/03/14,21:40,2.4,4.3,4.8,4.3,4.5,2.0,2.5,2.7,�k��,7.2,��
2014/03/14,21:50,2.4,4.3,4.8,4.3,4.5,2.0,2.5,2.7,�k��,6.7,��
2014/03/14,22:00,2.4,4.3,4.8,4.3,4.5,2.0,2.5,2.7,�k��,6.5,��
2014/03/14,22:10,2.4,4.3,4.8,4.3,4.5,2.0,2.5,2.7,�k��,6.4,��
2014/03/14,22:20,2.4,4.3,4.8,4.3,4.5,2.0,2.5,2.7,�k��,5.2,��
2014/03/14,22:30,2.4,4.3,4.8,4.3,4.5,2.0,2.5,2.7,�k��,5.7,��
2014/03/14,22:40,2.4,4.3,4.8,4.3,4.5,2.0,2.5,2.7,�k��,5.0,��
2014/03/14,22:50,2.4,4.3,4.8,4.3,4.5,2.0,2.5,2.7,�k��,5.8,��
2014/03/14,23:00,2.4,4.3,4.8,4.3,4.5,2.0,2.5,2.7,�k��,6.3,��
2014/03/14,23:10,2.4,4.3,4.8,4.3,4.5,2.0,2.5,2.7,�k��,6.4,��
2014/03/14,23:20,2.4,4.3,4.8,4.3,4.5,2.0,2.5,2.7,�k��,7.5,��
2014/03/14,23:30,2.4,4.3,4.8,4.3,4.5,2.0,2.5,2.7,�k��,5.7,��
2014/03/14,23:40,2.4,4.3,4.8,4.3,4.5,2.0,2.5,2.7,�k��,5.6,��
2014/03/14,23:50,2.4,4.3,4.8,4.3,4.5,2.0,2.5,2.7,�k��,5.5,��
